Regional Weather Roundup
Issued by NWS Midland/Odessa, TX

Skip options and go directly to product.
Home | Oldest Version | Previous Version | Current Version | All | Text Only | Save Text | Print | Product List | Glossary Off

Skip product version selection by date and time.   

488
ASUS44 KMAF 010310
RWRMAF
MIDLAND AREA WEATHER ROUNDUP
NATIONAL WEATHER SERVICE MIDLAND TX
1000 PM CDT TUE MAR 31 2015

...IN SOUTHWEST TEXAS AND SOUTHEAST NEW MEXICO...

CITY           SKY/WX    TMP DP  RH WIND       PRES   REMARKS
ALPINE         CLOUDY    60  44  56 CALM      30.11R
ANDREWS        FAIR      69  44  39 S3        29.94S
ARTESIA        MOCLDY    66  45  45 SW13      29.94R
BIG SPRING     CLOUDY    79  40  24 SW8       29.94R
CARLSBAD       CLOUDY    63  45  51 SW9       29.91R
DRYDEN           N/A     69  63  81 N8        29.96R
FORT STOCKTON  CLOUDY    66  47  50 W7        29.97R
GUAD PASS      CLOUDY    60  40  47 W17       30.07S
HOBBS          MOCLDY    63  37  39 S7        29.96S
MARFA          MOCLDY    54  41  62 N6        30.09R
MIDLAND AIRPK  CLOUDY    73  43  33 CALM      29.94R
MIDLAND INTL   CLOUDY    69  50  50 W5        29.93R
ODESSA         CLOUDY    72  43  35 W3        29.94R
PECOS          CLOUDY    71  44  37 S9        29.93S
PRESIDIO       LGT RAIN  66  55  65 S13G18    30.01R
SEMINOLE       CLOUDY    67  40  37 SW3       29.96R
SNYDER         CLOUDY    69  52  54 SE10      29.91R
WINK           CLOUDY    69  45  41 S10       29.91S
$$
...OTHER STATIONS IN TEXAS...

CITY           SKY/WX    TMP DP  RH WIND       PRES   REMARKS
ABILENE        CLOUDY    74  45  35 S10       29.89F
AMARILLO       CLEAR     65  38  36 S12       29.89R
AUSTIN         MOCLDY    67  63  87 S7        29.95R
BROWNSVILLE    MOCLDY    72  68  87 SE10      29.99R
CORPUS CHRISTI CLOUDY    71  68  90 S17G28    29.97S
DALLAS FTW     CLOUDY    73  60  63 S15       29.87F
DEL RIO        CLOUDY    71  63  75 SE9       29.93S
EL PASO        MOCLDY    67  42  40 S13       29.99R
HOUSTON INT    CLOUDY    73  66  78 S6        29.99R
LUBBOCK        CLOUDY    65  43  44 SW6       29.90R
SAN ANGELO     MOCLDY    72  60  66 S13       29.92R
SAN ANTONIO    PTCLDY    70  64  81 S6        29.96R
WACO           PTCLDY    69  61  75 S12       29.92R
WICHITA FALLS  NOT AVBL
$$
...OTHER LOCATIONS IN NEW MEXICO...

CITY           SKY/WX    TMP DP  RH WIND       PRES   REMARKS
ALAMAGORDO     MOCLDY    68  39  34 S18G29    29.99R
ALBUQUERQUE    MOCLDY    68  23  18 W5        29.98S
CANNON AFB     NOT AVBL
CLOVIS         PTCLDY    61  36  39 S12       29.93S
HOLLOMAN AFB   MOCLDY    71  40  32 SE28      29.95R
ROSWELL        MOCLDY    66  39  37 SW14      29.93R
RUIDOSO        CLOUDY    54  28  37 SW8       30.11S
SANTA FE       PTCLDY    57  17  21 NW6       30.03R
TRUTH OR CONSE FAIR      65  27  23 W6        29.97R
TUCUMCARI      CLEAR     61  27  27 SW10      29.87S
$$

USA.gov is the U.S. government's official web portal to all federal, state and local government web resources and services.